Location: Unspecified
(0.0000°N, 0.0000°E)
Time: 01:05:47
(UTC+02:00)

Ariane H10+ - Visible Passes

Search period start: 05 May 2016 00:00
Search period end: 15 May 2016 00:00
Orbit: 289 x 31458 km, 7.1° (Epoch: 02 May)

Date Brightness Start Highest point End Pass type
(mag) Time Alt. Az. Time Alt. Az. Time Alt. Az.
05 May 5.7 14:00:08 10° W 15:46:45 47° W 22:16:19 51° ENE visible
08 May 4.7 05:42:09 50° SSE 05:42:09 50° SSE 06:01:50 10° E visible
08 May 6.1 15:55:23 10° W 17:15:29 22° W 23:40:16 46° WNW visible
10 May 6.2 13:09:43 10° W 21:24:15 76° N 21:32:26 26° E visible
11 May 5.7 07:05:33 15° WSW 07:12:03 66° S 15:20:56 10° E visible
13 May 5.8 04:57:22 29° ESE 04:57:22 29° ESE 05:05:41 10° E visible
13 May 5.3 14:53:28 10° W 16:28:36 31° W 22:55:21 77° NNW visible
